Time,TemperatureF,DewpointF,PressureIn,WindDirection,WindDirectionDegrees,WindSpeedMPH,WindSpeedGustMPH,Humidity,HourlyPrecipIn,Conditions,Clouds,dailyrainin,SoftwareType,DateUTC
2013-01-04 00:03:00,40.8,34.5,30.49,ESE,112,2.2,-999.0,78,-99.99,,,0.00,Acu-Link.com,2013-01-04 06:03:00,
2013-01-04 00:19:00,40.5,34.5,30.48,ENE,67,0.0,-999.0,79,-99.99,,,0.00,Acu-Link.com,2013-01-04 06:19:00,
2013-01-04 00:34:00,40.3,33.7,30.47,East,90,1.1,-999.0,77,-99.99,,,0.00,Acu-Link.com,2013-01-04 06:34:00,
2013-01-04 00:49:00,40.3,33.7,30.46,NW,315,1.1,-999.0,77,-99.99,,,0.00,Acu-Link.com,2013-01-04 06:49:00,
2013-01-04 01:04:00,40.5,33.8,30.46,NE,45,1.6,-999.0,77,-99.99,,,0.00,Acu-Link.com,2013-01-04 07:04:00,
2013-01-04 01:20:00,40.5,34.5,30.47,NE,45,0.0,-999.0,79,-99.99,,,0.00,Acu-Link.com,2013-01-04 07:20:00,
2013-01-04 01:35:00,40.1,34.7,30.46,WNW,292,1.6,-999.0,81,-99.99,,,0.00,Acu-Link.com,2013-01-04 07:35:00,
2013-01-04 01:50:00,39.6,34.2,30.46,NNE,22,1.6,-999.0,81,-99.99,,,0.00,Acu-Link.com,2013-01-04 07:50:00,
2013-01-04 02:05:00,39.4,34.0,30.46,ESE,112,1.1,-999.0,81,-99.99,,,0.00,Acu-Link.com,2013-01-04 08:05:00,
2013-01-04 02:20:00,38.8,34.1,30.46,ESE,112,2.7,-999.0,83,-99.99,,,0.00,Acu-Link.com,2013-01-04 08:20:00,
2013-01-04 02:36:00,37.9,33.5,30.46,West,270,0.0,-999.0,84,-99.99,,,0.00,Acu-Link.com,2013-01-04 08:36:00,
2013-01-04 02:51:00,37.0,33.0,30.48,West,270,0.0,-999.0,85,-99.99,,,0.00,Acu-Link.com,2013-01-04 08:51:00,
2013-01-04 03:07:00,37.2,33.4,30.48,SW,225,0.0,-999.0,86,-99.99,,,0.00,Acu-Link.com,2013-01-04 09:07:00,
2013-01-04 03:22:00,37.8,34.0,30.49,WNW,292,0.0,-999.0,86,-99.99,,,0.00,Acu-Link.com,2013-01-04 09:22:00,
2013-01-04 03:38:00,38.1,34.0,30.50,West,270,0.0,-999.0,85,-99.99,,,0.00,Acu-Link.com,2013-01-04 09:38:00,
2013-01-04 03:53:00,38.5,34.1,30.51,NW,315,0.0,-999.0,84,-99.99,,,0.00,Acu-Link.com,2013-01-04 09:53:00,
2013-01-04 04:08:00,38.8,34.1,30.52,North,0,0.0,-999.0,83,-99.99,,,0.00,Acu-Link.com,2013-01-04 10:08:00,
2013-01-04 04:23:00,38.8,34.1,30.53,NW,315,1.1,-999.0,83,-99.99,,,0.00,Acu-Link.com,2013-01-04 10:23:00,
2013-01-04 04:38:00,38.7,34.0,30.51,East,90,3.1,-999.0,83,-99.99,,,0.00,Acu-Link.com,2013-01-04 10:38:00,
2013-01-04 04:54:00,38.8,33.8,30.50,NW,315,0.0,-999.0,82,-99.99,,,0.00,Acu-Link.com,2013-01-04 10:54:00,
2013-01-04 05:09:00,39.0,34.0,30.52,NNW,337,0.0,-999.0,82,-99.99,,,0.00,Acu-Link.com,2013-01-04 11:09:00,
2013-01-04 05:24:00,39.0,34.0,30.53,West,270,0.0,-999.0,82,-99.99,,,0.00,Acu-Link.com,2013-01-04 11:24:00,
2013-01-04 05:39:00,39.4,35.0,30.53,NNW,337,2.7,-999.0,84,-99.99,,,0.00,Acu-Link.com,2013-01-04 11:39:00,
2013-01-04 05:55:00,39.4,35.0,30.53,NNW,337,0.0,-999.0,84,-99.99,,,0.00,Acu-Link.com,2013-01-04 11:55:00,
2013-01-04 06:10:00,39.4,35.5,30.53,SW,225,0.0,-999.0,86,-99.99,,,0.00,Acu-Link.com,2013-01-04 12:10:00,
2013-01-04 06:25:00,39.4,36.1,30.52,WNW,292,0.0,-999.0,88,-99.99,,,0.00,Acu-Link.com,2013-01-04 12:25:00,
2013-01-04 06:40:00,39.2,36.0,30.52,WNW,292,0.0,-999.0,88,-99.99,,,0.00,Acu-Link.com,2013-01-04 12:40:00,
2013-01-04 06:55:00,39.2,36.5,30.54,NNE,22,0.0,-999.0,90,-99.99,,,0.00,Acu-Link.com,2013-01-04 12:55:00,
2013-01-04 07:11:00,39.2,36.5,30.54,NNW,337,0.0,-999.0,90,-99.99,,,0.00,Acu-Link.com,2013-01-04 13:11:00,
2013-01-04 07:26:00,39.2,36.5,30.54,NE,45,0.0,-999.0,90,-99.99,,,0.00,Acu-Link.com,2013-01-04 13:26:00,
2013-01-04 07:41:00,39.0,36.6,30.54,NNE,22,1.6,-999.0,91,-99.99,,,0.00,Acu-Link.com,2013-01-04 13:41:00,
2013-01-04 07:56:00,39.4,35.8,30.54,North,0,2.2,-999.0,87,-99.99,,,0.00,Acu-Link.com,2013-01-04 13:56:00,
2013-01-04 08:11:00,39.6,35.4,30.54,ENE,67,0.0,-999.0,85,-99.99,,,0.00,Acu-Link.com,2013-01-04 14:11:00,
2013-01-04 08:27:00,40.1,35.1,30.55,NNW,337,0.0,-999.0,82,-99.99,,,0.00,Acu-Link.com,2013-01-04 14:27:00,
2013-01-04 08:42:00,40.8,34.5,30.56,North,0,0.0,-999.0,78,-99.99,,,0.00,Acu-Link.com,2013-01-04 14:42:00,
2013-01-04 08:57:00,41.9,34.6,30.55,ESE,112,1.1,-999.0,75,-99.99,,,0.00,Acu-Link.com,2013-01-04 14:57:00,
2013-01-04 09:12:00,43.2,34.8,30.56,South,180,0.0,-999.0,72,-99.99,,,0.00,Acu-Link.com,2013-01-04 15:12:00,
2013-01-04 09:27:00,43.5,34.4,30.55,SE,135,2.2,-999.0,70,-99.99,,,0.00,Acu-Link.com,2013-01-04 15:27:00,
2013-01-04 09:43:00,44.2,34.7,30.56,SSE,157,2.2,-999.0,69,-99.99,,,0.00,Acu-Link.com,2013-01-04 15:43:00,
2013-01-04 09:58:00,45.7,35.0,30.57,East,90,1.6,-999.0,66,-99.99,,,0.00,Acu-Link.com,2013-01-04 15:58:00,
2013-01-04 10:13:00,44.6,34.7,30.57,WNW,292,2.7,-999.0,68,-99.99,,,0.00,Acu-Link.com,2013-01-04 16:13:00,
2013-01-04 10:28:00,45.9,35.2,30.56,North,0,0.0,-999.0,66,-99.99,,,0.00,Acu-Link.com,2013-01-04 16:28:00,
2013-01-04 10:44:00,47.3,36.1,30.56,West,270,2.7,-999.0,65,-99.99,,,0.00,Acu-Link.com,2013-01-04 16:44:00,
2013-01-04 10:59:00,47.7,35.7,30.56,WNW,292,1.6,-999.0,63,-99.99,,,0.00,Acu-Link.com,2013-01-04 16:59:00,
2013-01-04 11:14:00,49.8,36.5,30.56,SSW,202,1.6,-999.0,60,-99.99,,,0.00,Acu-Link.com,2013-01-04 17:14:00,
2013-01-04 11:29:00,49.6,35.0,30.55,SW,225,1.6,-999.0,57,-99.99,,,0.00,Acu-Link.com,2013-01-04 17:29:00,
2013-01-04 11:44:00,49.8,35.2,30.55,NNE,22,1.1,-999.0,57,-99.99,,,0.00,Acu-Link.com,2013-01-04 17:44:00,
2013-01-04 12:00:00,49.3,34.7,30.54,NW,315,0.0,-999.0,57,-99.99,,,0.00,Acu-Link.com,2013-01-04 18:00:00,
2013-01-04 12:15:00,51.1,35.9,30.53,NE,45,2.7,-999.0,56,-99.99,,,0.00,Acu-Link.com,2013-01-04 18:15:00,
2013-01-04 12:30:00,50.0,34.5,30.51,SW,225,1.1,-999.0,55,-99.99,,,0.00,Acu-Link.com,2013-01-04 18:30:00,
2013-01-04 12:45:00,51.1,35.0,30.50,East,90,0.0,-999.0,54,-99.99,,,0.00,Acu-Link.com,2013-01-04 18:45:00,
2013-01-04 13:00:00,50.7,34.7,30.49,SW,225,2.7,-999.0,54,-99.99,,,0.00,Acu-Link.com,2013-01-04 19:00:00,
2013-01-04 13:15:00,51.1,35.0,30.49,WSW,247,2.2,-999.0,54,-99.99,,,0.00,Acu-Link.com,2013-01-04 19:15:00,
2013-01-04 13:31:00,51.4,34.9,30.48,North,0,2.2,-999.0,53,-99.99,,,0.00,Acu-Link.com,2013-01-04 19:31:00,
2013-01-04 13:46:00,51.6,35.5,30.47,ENE,67,2.2,-999.0,54,-99.99,,,0.00,Acu-Link.com,2013-01-04 19:46:00,
2013-01-04 14:01:00,50.7,34.2,30.46,WSW,247,3.1,-999.0,53,-99.99,,,0.00,Acu-Link.com,2013-01-04 20:01:00,
2013-01-04 14:16:00,52.5,35.4,30.46,WNW,292,2.7,-999.0,52,-99.99,,,0.00,Acu-Link.com,2013-01-04 20:16:00,
2013-01-04 14:31:00,52.5,35.4,30.44,South,180,0.0,-999.0,52,-99.99,,,0.00,Acu-Link.com,2013-01-04 20:31:00,
2013-01-04 14:46:00,51.3,34.7,30.44,WSW,247,2.7,-999.0,53,-99.99,,,0.00,Acu-Link.com,2013-01-04 20:46:00,
2013-01-04 15:02:00,52.7,35.6,30.44,East,90,3.1,-999.0,52,-99.99,,,0.00,Acu-Link.com,2013-01-04 21:02:00,
2013-01-04 15:17:00,51.6,35.1,30.44,NW,315,1.6,-999.0,53,-99.99,,,0.00,Acu-Link.com,2013-01-04 21:17:00,
2013-01-04 15:32:00,51.6,35.5,30.44,North,0,2.2,-999.0,54,-99.99,,,0.00,Acu-Link.com,2013-01-04 21:32:00,
2013-01-04 15:47:00,52.9,35.3,30.43,NE,45,0.0,-999.0,51,-99.99,,,0.00,Acu-Link.com,2013-01-04 21:47:00,
2013-01-04 16:03:00,50.0,34.0,30.43,North,0,2.7,-999.0,54,-99.99,,,0.00,Acu-Link.com,2013-01-04 22:03:00,
2013-01-04 16:18:00,51.1,35.9,30.43,WSW,247,2.2,-999.0,56,-99.99,,,0.00,Acu-Link.com,2013-01-04 22:18:00,
2013-01-04 16:33:00,51.8,35.7,30.43,NW,315,2.2,-999.0,54,-99.99,,,0.00,Acu-Link.com,2013-01-04 22:33:00,
2013-01-04 16:48:00,49.3,35.6,30.43,ESE,112,3.1,-999.0,59,-99.99,,,0.00,Acu-Link.com,2013-01-04 22:48:00,
2013-01-04 17:03:00,48.0,35.6,30.44,NNE,22,1.6,-999.0,62,-99.99,,,0.00,Acu-Link.com,2013-01-04 23:03:00,
2013-01-04 17:19:00,46.4,34.5,30.43,ENE,67,0.0,-999.0,63,-99.99,,,0.00,Acu-Link.com,2013-01-04 23:19:00,
2013-01-04 17:34:00,45.5,34.0,30.43,ENE,67,1.6,-999.0,64,-99.99,,,0.00,Acu-Link.com,2013-01-04 23:34:00,
2013-01-04 17:49:00,45.1,34.1,30.43,South,180,0.0,-999.0,65,-99.99,,,0.00,Acu-Link.com,2013-01-04 23:49:00,
2013-01-04 18:04:00,44.8,34.5,30.44,ENE,67,0.0,-999.0,67,-99.99,,,0.00,Acu-Link.com,2013-01-05 00:04:00,
2013-01-04 18:19:00,44.6,34.3,30.44,ESE,112,0.0,-999.0,67,-99.99,,,0.00,Acu-Link.com,2013-01-05 00:19:00,
2013-01-04 18:35:00,44.6,34.7,30.45,ESE,112,0.0,-999.0,68,-99.99,,,0.00,Acu-Link.com,2013-01-05 00:35:00,
2013-01-04 18:50:00,44.6,35.1,30.44,South,180,0.0,-999.0,69,-99.99,,,0.00,Acu-Link.com,2013-01-05 00:50:00,
2013-01-04 19:05:00,44.6,35.4,30.43,ENE,67,0.0,-999.0,70,-99.99,,,0.00,Acu-Link.com,2013-01-05 01:05:00,
2013-01-04 19:20:00,44.4,35.6,30.44,West,270,0.0,-999.0,71,-99.99,,,0.00,Acu-Link.com,2013-01-05 01:20:00,
2013-01-04 19:35:00,44.2,36.1,30.44,SE,135,0.0,-999.0,73,-99.99,,,0.00,Acu-Link.com,2013-01-05 01:35:00,
2013-01-04 19:51:00,44.2,36.1,30.42,WSW,247,2.2,-999.0,73,-99.99,,,0.00,Acu-Link.com,2013-01-05 01:51:00,
2013-01-04 20:06:00,44.1,36.0,30.43,NE,45,0.0,-999.0,73,-99.99,,,0.00,Acu-Link.com,2013-01-05 02:06:00,
2013-01-04 20:21:00,44.1,36.3,30.44,NNE,22,0.0,-999.0,74,-99.99,,,0.00,Acu-Link.com,2013-01-05 02:21:00,
2013-01-04 20:36:00,43.9,36.8,30.44,NE,45,0.0,-999.0,76,-99.99,,,0.00,Acu-Link.com,2013-01-05 02:36:00,
2013-01-04 20:52:00,43.9,37.1,30.44,North,0,0.0,-999.0,77,-99.99,,,0.00,Acu-Link.com,2013-01-05 02:52:00,
2013-01-04 21:07:00,43.7,37.0,30.44,WSW,247,0.0,-999.0,77,-99.99,,,0.00,Acu-Link.com,2013-01-05 03:07:00,
2013-01-04 21:22:00,43.7,37.0,30.44,ESE,112,0.0,-999.0,77,-99.99,,,0.00,Acu-Link.com,2013-01-05 03:22:00,
2013-01-04 21:37:00,43.9,37.8,30.43,NNE,22,2.7,-999.0,79,-99.99,,,0.00,Acu-Link.com,2013-01-05 03:37:00,
2013-01-04 21:52:00,43.9,37.5,30.42,SE,135,1.1,-999.0,78,-99.99,,,0.00,Acu-Link.com,2013-01-05 03:52:00,
2013-01-04 22:08:00,43.9,37.1,30.42,SE,135,1.1,-999.0,77,-99.99,,,0.00,Acu-Link.com,2013-01-05 04:08:00,
2013-01-04 22:23:00,43.7,38.3,30.43,SSW,202,0.0,-999.0,81,-99.99,,,0.00,Acu-Link.com,2013-01-05 04:23:00,
2013-01-04 22:38:00,43.2,39.0,30.42,East,90,0.0,-999.0,85,-99.99,,,0.00,Acu-Link.com,2013-01-05 04:38:00,
2013-01-04 23:08:00,43.0,38.8,30.42,SSW,202,0.0,-999.0,85,-99.99,,,0.00,Acu-Link.com,2013-01-05 05:08:00,
2013-01-04 23:24:00,43.3,39.1,30.41,West,270,3.8,-999.0,85,-99.99,,,0.00,Acu-Link.com,2013-01-05 05:24:00,
2013-01-04 23:39:00,43.7,38.9,30.42,SSW,202,2.2,-999.0,83,-99.99,,,0.00,Acu-Link.com,2013-01-05 05:39:00,
2013-01-04 23:54:00,43.7,39.2,30.42,WSW,247,3.1,-999.0,84,-99.99,,,0.00,Acu-Link.com,2013-01-05 05:54:00,